Location: Appeville
(49.3218°N, 1.3427°W)
Time: 06:24:18
(UTC+00:00)

Cosmos 1603 - Pass Details

Date: 08 December 2019
Orbit: 830 x 860 km, 71.0° (Epoch: 17 January)

Event Time Altitude Azimuth Distance (km) Brightness Sun altitude
Exits shadow 04:49:23 40° 359° (N) 1,261 4.5 -27.9°
Maximum altitude 04:51:15 58° 56° (ENE) 1,001 4.2 -27.6°
Drops below altitude 10° 04:56:53 10° 136° (SE) 2,484 6.7 -26.6°
Sets 04:59:22 0° 140° (SE) 3,413 7.5 -26.2°
